EW6761 Weather Reports


time (UTC)temp
C
wind
direction
speed
KPH
gust
KPH
rain 1hr
cm
rain 24hr
cm
rain mn
cm
humidity
%
barometer
mb
20260505183034 25 193 0.0 4.8 0.00 0.00 0.00 73 1002.6
20260505181508 23 319 0.0 3.2 0.00 0.00 0.00 74 1002.8
20260505180056 23 130 0.0 3.2 0.00 0.00 0.00 76 1002.8
20260505174517 23 75 1.6 4.8 0.00 0.00 0.00 76 1002.8
20260505173047 23 125 0.0 6.4 0.00 0.00 0.00 76 1003.0
20260505171533 22 20 0.0 4.8 0.00 0.00 0.00 76 1003.0
20260505170138 22 80 1.6 4.8 0.00 0.00 0.00 77 1003.2
20260505164522 22 86 1.6 11.3 0.00 0.00 0.00 77 1003.1
20260505163056 22 333 1.6 6.4 0.00 0.00 0.00 78 1003.2
20260505161543 21 199 1.6 9.7 0.00 0.00 0.00 78 1003.2
20260505160117 21 113 1.6 11.3 0.00 0.00 0.00 79 1003.1
20260505153024 20 131 1.6 17.7 0.00 0.00 0.00 81 1003.2
20260505151600 20 80 4.8 20.9 0.00 0.00 0.00 81 1003.3
20260505151502 20 113 6.4 20.9 0.00 0.00 0.00 80 1003.3
20260505140106 19 101 4.8 16.1 0.00 0.00 0.00 78 1003.5
20260505124544 19 116 1.6 9.7 0.00 0.00 0.00 76 1003.5
20260505123041 18 139 1.6 12.9 0.00 0.00 0.00 76 1003.3
20260505121502 18 161 0.0 11.3 0.00 0.00 0.00 76 1003.3
20260505120042 18 163 1.6 11.3 0.00 0.00 0.00 76 1002.9
20260505114615 18 145 1.6 9.7 0.00 0.00 0.00 76 1002.7
20260505114502 18 135 3.2 9.7 0.00 0.00 0.00 76 1002.7
20260505113043 18 114 3.2 9.7 0.00 0.00 0.00 76 1002.7
20260505111529 18 154 3.2 11.3 0.00 0.00 0.00 75 1002.6
20260505101545 18 158 1.6 11.3 0.00 0.00 0.00 75 1002.1
20260505100010 19 11 0.0 8.0 0.00 0.00 0.00 75 1002.0
20260505094548 19 124 0.0 8.0 0.00 0.00 0.00 74 1002.2
20260505093030 19 123 1.6 9.7 0.00 0.00 0.00 73 1002.3
20260505091510 19 139 0.0 6.4 0.00 0.00 0.00 74 1002.3
20260505090053 19 145 0.0 8.0 0.00 0.00 0.00 74 1002.2
20260505084515 18 121 1.6 4.8 0.00 0.00 0.00 75 1002.0
20260505083059 18 72 0.0 3.2 0.00 0.00 0.00 76 1001.8
20260505081540 18 190 0.0 3.2 0.00 0.00 0.00 76 1001.6
20260505080105 18 139 0.0 6.4 0.00 0.00 0.00 76 1001.8
20260505074523 18 151 0.0 4.8 0.00 0.00 0.00 76 1001.7
20260505073105 18 148 0.0 4.8 0.00 0.00 0.00 76 1001.9
20260505071538 18 111 0.0 3.2 0.00 0.00 0.00 75 1002.2
20260505070110 18 56 0.0 4.8 0.00 0.00 0.00 75 1002.3
20260505064551 18 125 0.0 1.6 0.00 0.00 0.00 75 1002.9
20260505063007 18 116 0.0 1.6 0.00 0.00 0.00 74 1003.3
20260505061549 18 96 0.0 1.6 0.00 0.00 0.00 74 1003.6
20260505060012 18 105 0.0 3.2 0.00 0.00 0.00 72 1003.6
20260505054558 18 116 0.0 3.2 0.00 0.00 0.00 73 1003.4
20260505053031 19 235 3.2 9.7 0.00 0.00 0.00 71 1003.6
20260505051505 19 203 0.0 3.2 0.00 0.00 0.00 71 1003.5
20260505041527 18 148 0.0 1.6 0.00 0.00 0.00 72 1004.2
20260505040055 18 148 0.0 1.6 0.00 0.00 0.00 70 1004.7
20260505034519 18 148 0.0 1.6 0.00 0.00 0.00 69 1005.0
20260505033057 19 148 0.0 3.2 0.00 0.00 0.00 69 1004.9
20260505031539 19 29 0.0 0.0 0.00 0.00 0.00 68 1005.2
20260505030115 19 30 0.0 0.0 0.00 0.00 0.00 68 1005.1
20260505024546 20 29 0.0 0.0 0.00 0.00 0.00 66 1005.0
20260505023021 20 29 0.0 0.0 0.00 0.00 0.00 64 1005.2
20260505021557 20 29 0.0 3.2 0.00 0.00 0.00 64 1004.9
20260505020037 20 336 0.0 1.6 0.00 0.00 0.00 63 1005.0
20260505014557 21 336 0.0 1.6 0.00 0.00 0.00 61 1004.6
20260505013041 21 326 0.0 3.2 0.00 0.00 0.00 60 1004.6
20260505011520 22 299 0.0 3.2 0.00 0.00 0.00 58 1004.4
20260505010059 22 356 0.0 6.4 0.00 0.00 0.00 57 1004.4
20260505004523 23 289 0.0 11.3 0.00 0.00 0.00 55 1004.1
20260505003057 23 39 1.6 8.0 0.00 0.00 0.00 54 1004.2
20260505001547 25 260 1.6 9.7 0.00 0.00 0.00 53 1004.1
20260505000005 25 293 1.6 8.0 0.00 0.00 0.00 51 1004.3
20260504234549 26 225 1.6 11.3 0.00 0.00 0.00 50 1004.2
20260504233023 26 297 0.0 24.1 0.00 0.00 0.00 52 1004.3
20260504231605 25 265 0.0 8.0 0.00 0.00 0.00 52 1004.3
20260504231503 25 249 0.0 8.0 0.00 0.00 0.00 52 1004.4
20260504230019 25 216 0.0 9.7 0.00 0.00 0.00 50 1004.4
20260504224555 26 293 0.0 11.3 0.00 0.00 0.00 50 1004.3
20260504223035 26 360 1.6 12.9 0.00 0.00 0.00 48 1004.2
20260504221510 27 334 3.2 11.3 0.00 0.00 0.00 46 1004.5
20260504220049 27 266 1.6 9.7 0.00 0.00 0.00 47 1004.6
20260504214509 28 187 1.6 12.9 0.00 0.00 0.00 45 1004.7
20260504213047 27 256 1.6 14.5 0.00 0.00 0.00 46 1004.8
20260504211530 27 342 3.2 11.3 0.00 0.00 0.00 46 1004.9
20260504210111 27 251 1.6 11.3 0.00 0.00 0.00 47 1005.4
20260504204527 27 241 1.6 11.3 0.00 0.00 0.00 47 1005.6
20260504203104 27 228 0.0 11.3 0.00 0.00 0.00 49 1005.9
20260504203007 27 324 0.0 11.3 0.00 0.00 0.00 46 1005.9
20260504201547 27 283 3.2 16.1 0.00 0.00 0.00 46 1006.2
20260504200115 27 194 3.2 14.5 0.00 0.00 0.00 44 1006.4
20260504194559 27 281 3.2 11.3 0.00 0.00 0.00 44 1006.7
20260504193019 27 268 4.8 12.9 0.00 0.00 0.00 43 1007.1
20260504191556 27 255 3.2 17.7 0.00 0.00 0.00 46 1007.3
20260504190021 27 222 4.8 16.1 0.00 0.00 0.00 45 1007.4
20260504184600 26 168 4.8 19.3 0.00 0.00 0.00 44 1007.6